Погода в Андреевке

Украина / Днепропетровская область     48°34′50″N   34°03′22″E
темп.,
°C
ветер,
м/с
пор.,
м/с
влажн.,
%
обл.,
%
осадки,
мм/ч
давл.,
гПа
погр.,
м
4 декабря, сб
сб423:00+4сз6990100 0.1 1010460
02:00+2с5997100 1.2 1013412
05:00+2ссз4679100 0.0 1014506
08:00+2с3577100 0.1 1015455
11:00+3с3458100 0.0 1016531
14:00+3ссв3346100 0.0 1015526
17:00+1св346195 0.0 101562
20:000всв357363 0.0 101591
5 декабря, вс
вс523:00−1всв347325 0.0 101575
02:00−1всв36757 0.0 1014123
05:00−2всв347990 0.0 101470
08:00−2в36845 0.0 1014136
11:00+2вюв347494 0.0 1014365
14:00+3вюв2279100 0.0 1013372
17:00+1юв2390100 0.0 101459
20:00+2ююв2488100 0.0 1014129
6 декабря, пн
пн623:00+2ююв2387100 0.0 101484
02:00+3ююв3588100 0.0 1014142
05:00+3ююв4791100 0.0 1013197
08:00+4ююв5992100 0.0 1014250
11:00+5юв51096100 1.1 1013291
14:00+5юв61297100 4.1 1011379
17:00+7ююв71596100 0.8 1011446
20:00+8ююв61693100 0.8 1010462
7 декабря, вт
вт723:00+9ю71685100 0.0 1009465
02:00+9ю61487100 0.0 1009470
05:00+9ю51392100 0.0 1009325
08:00+9ю61492100 0.4 1010348
11:00+9ю4996100 1.4 1010254
14:00+10юв2484100 1.8 1008167
17:00+8вюв3590100 0.0 100780
20:00+7юв3390100 0.0 100734
8 декабря, ср
ср823:00+7в3489100 0.0 100651
02:00+6всв4683100 0.0 1005105
05:00+6в4876100 0.0 1004159
08:00+5в4879100 0.0 1004222
11:00+8ююв3574100 0.0 1004316
14:00+9вюв3473100 0.0 1004291
17:00+8в2282100 0.1 100530
20:00+8в2284100 0.1 100630